This is the latest recevied weather packets stored in our database for station/object KF7SOJ. If no packets are shown the sender has not sent any weather packets the latest 10 day(s).
| Time | Temp. | Humidity | Pressure | Rain* | Wind** | Luminosity | Snow |
|---|---|---|---|---|---|---|---|
| 1777701322 | 12.22° C | 36% | 932.7 hPa | 0 mm | - | 0 W/m² | - |
| 1777701021 | 11.67° C | 37% | 932.6 hPa | 0 mm | - | 0 W/m² | - |
| 1777700719 | 12.22° C | 37% | 932.7 hPa | 0 mm | - | 0 W/m² | - |
| 1777700416 | 12.22° C | 37% | 932.7 hPa | 0 mm | - | 0 W/m² | - |
| 1777700113 | 12.22° C | 37% | 932.7 hPa | 0 mm | - | 0 W/m² | - |
| 1777699811 | 11.67° C | 38% | 932.8 hPa | 0 mm | - | 0 W/m² | - |
| 1777699509 | 11.67° C | 39% | 932.9 hPa | 0 mm | - | 0 W/m² | - |
| 1777699207 | 11.11° C | 41% | 932.7 hPa | 0 mm | - | 0 W/m² | - |
| 1777698905 | 11.11° C | 42% | 932.8 hPa | 0 mm | - | 0 W/m² | - |
| 1777698601 | 11.11° C | 41% | 932.8 hPa | 0 mm | - | 0 W/m² | - |
| 1777698298 | 11.67° C | 41% | 932.8 hPa | 0 mm | - | 0 W/m² | - |
| 1777697995 | 12.22° C | 39% | 932.8 hPa | 0 mm | - | 0 W/m² | - |
| 1777697692 | 12.22° C | 39% | 932.7 hPa | 0 mm | - | 0 W/m² | - |
| 1777697389 | 12.22° C | 40% | 932.7 hPa | 0 mm | - | 0 W/m² | - |
| 1777697084 | 12.22° C | 39% | 932.9 hPa | 0 mm | - | 0 W/m² | - |
| 1777696782 | 12.78° C | 40% | 932.8 hPa | 0 mm | - | 0 W/m² | - |
| 1777696479 | 12.22° C | 41% | 932.7 hPa | 0 mm | - | 0 W/m² | - |
| 1777696178 | 12.78° C | 40% | 932.8 hPa | 0 mm | - | 0 W/m² | - |
| 1777695876 | 12.78° C | 40% | 932.6 hPa | 0 mm | - | 0 W/m² | - |
| 1777695573 | 12.78° C | 39% | 932.6 hPa | 0 mm | - | 0 W/m² | - |
| 1777695271 | 13.33° C | 38% | 932.7 hPa | 0 mm | - | 0 W/m² | - |
| 1777694968 | 13.89° C | 37% | 932.8 hPa | 0 mm | - | 0 W/m² | - |
| 1777694664 | 13.33° C | 39% | 932.8 hPa | 0 mm | - | 0 W/m² | - |
| 1777694361 | 13.89° C | 37% | 932.8 hPa | 0 mm | - | 0 W/m² | - |
| 1777694057 | 14.44° C | 35% | 932.6 hPa | 0 mm | - | 0 W/m² | - |
* Rain latest hour (hover to see other rain measurements)
** Current wind speed in m/s (hover to see current wind gust speed)